www.pogodaiklimat.ru

Погода и климат >> Архив погоды >> Германия >> Нюрбург-Барвайлер


ПОГОДА в Нюрбург-Барвайлере

  • Прогноз погоды в Нюрбург-Барвайлере
  • Монитор погоды в Нюрбург-Барвайлере

АРХИВ ПОГОДЫ в Нюрбург-Барвайлере

Время (UTC), дата Ветер
(напр.,м/с)
 
Видим.   Явления Облачность Т
(С)
Тd
(С)
f
(%)
Тe
(С)
Тes
(С)
Комфортность P
(гПа)
Po
(гПа)
Тmin
(С)
Tmax
(С)
R
(мм)
R24
(мм)
S
(см)
10 12.08 Ю 3 27 км 4/0
[]
+19.3 +10.5 57 +21 +29 комфорт 1015.5 959.8
11 12.08 Ю 4 30 км 10/10 1110 м
[]
+19.1 +11.4 61 +20 +20 1015.3 959.6
12 12.08 Ю 4 19 км 6/6 930 м
[]
+20.3 +10.5 53 +22 +26 комфорт 1014.2 958.7
13 12.08 ЮЗ 5 40 км 9/9 1020 м
[]
+19.2 +10.2 56 +20 +21 1014.2 958.5
14 12.08 ЮЗ 5 30 км в посл. час дождь {морось} 9/9 1080 м
[]
+17.9 +10.8 63 +18 +18 1014.7 958.8
15 12.08 ЮЗ 3 35 км в посл. час дождь {морось} 9/9 1500 м
[]
+15.6 +11.6 77 +15 +16 1014.8 958.5 0.4
16 12.08 З 3 60 км в посл. час дождь {морось} 9/0 2000 м
[]
+14.5 +10.4 76 +14 +16 1015.2 958.6
17 12.08 З 3 65 км в посл. час дождь {морось} 9/9 500 м
[]
+14.6 +11.0 79 +14 +14 1015.3 958.7
18 12.08 З 2 23 км слаб. дождь {морось} 10/10 600 м
[]
+14.2 +11.4 83 +14 +14 1016.2 959.5 +11.9 +20.5 0.0
19 12.08 Ю 2 6000 м слаб. дождь {морось} 10/10 1110 м
[]
+10.9 +9.8 93 +9 +9 1017.2 959.8
20 12.08 Ю 2 70 км в посл. час дождь {морось} 10/10 1500 м
[]
+11.2 +9.7 90 +10 +10 1016.9 959.6
21 12.08 Ю 2 65 км {дождь, морось} 9/0
[]
+10.9 +9.7 92 +9 +9 1017.4 960.0 3
22 12.08 Ю 2-3
{4}
70 км 10/0 2000 м
[]
+11.0 +9.9 93 +10 +10 1017.4 960.0
23 12.08 Ю 2-3
{4}
45 км 5/0
[]
+10.8 +10.0 95 +9 +9 1017.4 960.0
00 13.08 Ю 2 40 км {дождь, морось} 8/0 2000 м
[]
+10.8 +9.8 94 +9 +9 1017.3 959.9
01 13.08 ЮЗ 2 30 км 9/0 2000 м
[]
+10.5 +9.8 95 +9 +9 1017.2 959.7
02 13.08 ЮЗ 4-6
{6}
27 км в посл. час дождь {морось} 9/0
[]
+10.9 +9.9 94 +8 +8 1017.1 959.7
03 13.08 ЮЗ 3 20 км {дождь, морось} 8/8 400 м
[]
+10.5 +9.7 95 +8 +8 1017.3 959.8 0.1
04 13.08 ЮЗ 4-5
{6}
21 км 5/5 480 м
[]
+10.4 +9.5 94 +8 +8 1017.5 960.0
05 13.08 ЮЗ 3-5
{6}
30 км 10/10 900 м
[]
+10.7 +9.4 92 +9 +9 1018.1 960.6
06 13.08 З 3 30 км {дождь, морось} 8/8 600 м
[]
+11.0 +8.9 87 +9 +9 1018.6 961.1 +10.3 +14.2 3
07 13.08 З 3 27 км 5/5 400 м
[]
+11.6 +8.2 80 +10 +11 1019.1 961.7
08 13.08 З 4 30 км 5/5 480 м
[]
+12.8 +8.9 77 +11 +13 1019.5 962.3
09 13.08 З 4 30 км 5/5 570 м
[]
+13.7 +8.8 72 +12 +16 1019.4 962.4
10 13.08 З 3 35 км 8/8 840 м
[]
+14.3 +6.6 60 +13 +16 1019.4 962.5
11 13.08 З 4-7
{8}
24 км 3/0 2000 м
[]
+16.2 +7.3 56 +16 +24 1018.8 962.3
12 13.08 ЮЗ 4 19 км 3/0 2000 м
[]
+17.4 +7.2 51 +17 +25 1018.5 962.2
13 13.08 З 4 55 км 9/9 1230 м
[]
+16.8 +6.7 51 +16 +17 1018.2 961.8
14 13.08 ЮЗ 3 50 км в посл. час дождь {морось} 10/10 1110 м
[]
+17.1 +8.3 56 +17 +17 1017.9 961.6
15 13.08 ЮЗ 4 50 км {дождь, морось} 10/10 1200 м
[]
+16.5 +7.7 56 +16 +16 1017.8 961.4 0.0
16 13.08 ЮЗ 4 65 км 10/10 1320 м
[]
+16.3 +6.9 54 +16 +16 1017.8 961.3
17 13.08 З 4 40 км слаб. дождь 10/10 1300 м
[]
+13.3 +8.6 73 +12 +12 1019.0 961.9
18 13.08 ЮЗ 3 60 км в посл. час дождь {морось} 10/10 1000 м
[]
+12.6 +8.4 76 +11 +11 1019.2 962.0 +10.9 +17.8 0.0
19 13.08 ЮЗ 2 60 км 5/5 1500 м
[]
+12.3 +7.8 74 +11 +11 1019.2 961.9
20 13.08 ЮЗ 2 50 км в посл. час дождь 8/8 1500 м
[]
+12.1 +8.1 77 +11 +11 1019.5 962.2
21 13.08 З 2 60 км {дождь} 10/0 2000 м
[]
+12.0 +8.1 77 +11 +11 1019.7 962.3 0.0
22 13.08 ЮЗ 2 55 км 10/0 2000 м
[]
+11.6 +8.3 80 +11 +11 1019.8 962.4
23 13.08 ЮЗ 2 50 км 9/9 800 м
[]
+11.4 +8.5 82 +10 +10 1019.9 962.4
00 14.08 ЮЗ 2 45 км {дождь} 9/0 2000 м
[]
+11.0 +8.6 85 +10 +10 1019.8 962.2
01 14.08 ЮЗ 3-4
{4}
35 км 1/0 2000 м
[]
+10.3 +8.6 89 +8 +8 1020.0 962.3
02 14.08 ЮЗ 3-4
{5}
29 км ясно +9.6 +8.4 92 +7 +7 1020.0 962.2
03 14.08 Ю 2-3
{5}
21 км ясно +8.8 +8.0 95 +7 +7 1020.2 962.2
04 14.08 ЮЗ 2-4
{5}
15 км 10/10 180 м
[]
+9.4 +8.3 93 +8 +8 1020.0 962.1
05 14.08 ЮЗ 2-3
{3}
11 км ясно +8.9 +8.0 94 +7 +7 1020.2 962.2
06 14.08 Ю 2 16 км ясно +10.0 +8.2 89 +8 +10 1020.3 962.5 +8.7 +13.1 0.0
07 14.08 Ю 2-3
{3}
18 км 1/0
[]
+11.6 +8.2 80 +11 +14 1020.2 962.7
08 14.08 Ю 1-2
{2}
23 км ясно +14.0 +8.5 69 +14 +22 1019.6 962.6
09 14.08 З 3 27 км 9/9 630 м
[]
+15.3 +9.1 66 +15 +16 1019.3 962.6
10 14.08 З 4 40 км 6/6 840 м
[]
+14.8 +7.5 62 +14 +17 1019.2 962.4
11 14.08 ЮЗ 2-5
{6}
65 км 3/3 930 м
[]
+16.4 +7.4 55 +17 +26 1018.4 961.9
12 14.08 ЮЗ 3 60 км 5/5 1260 м
[]
+18.8 +8.8 52 +20 +25 1017.7 961.7
13 14.08 ЮЗ 4-7
{8}
40 км 5/5 1410 м
[]
+18.7 +6.9 46 +19 +23 1017.3 961.3
14 14.08 З 4 50 км 8/8 1410 м
[]
+18.3 +6.7 47 +18 +20 1016.9 960.9
15 14.08 ЮЗ 4 50 км 5/5 1470 м
[]
+18.5 +7.8 50 +19 +21 1016.6 960.6
16 14.08 ЮЗ 3 65 км 6/6 1500 м
[]
+18.5 +8.5 52 +19 +20 1016.0 960.1
17 14.08 ЮЗ 3 70 км 9/9 1500 м
[]
+18.3 +8.7 53 +19 +19 1015.4 959.5
18 14.08 Ю 3 65 км 10/10 1500 м
[]
+17.9 +8.8 55 +18 +18 1015.2 959.2 +10.0 +20.1
19 14.08 Ю 2-3
{5}
55 км 10/0
[]
+16.8 +9.7 63 +17 +17 1015.0 958.8
20 14.08 ЮВ 4 55 км 9/0 2000 м
[]
+16.2 +10.0 67 +16 +16 1014.8 958.5
21 14.08 Ю 3 60 км 10/0 2000 м
[]
+16.2 +9.9 66 +16 +16 1014.2 958.0
22 14.08 Ю 3 55 км в посл. час дождь {морось} 10/0
[]
+15.8 +9.8 67 +15 +15 1013.7 957.4
23 14.08 Ю 3 60 км в посл. час дождь {морось} 10/10 1500 м
[]
+15.6 +9.8 68 +15 +15 1013.6 957.3
00 15.08 Ю 3 55 км в посл. час дождь {морось} 9/9 1500 м
[]
+14.8 +10.1 73 +14 +14 1013.7 957.2 0.0
01 15.08 Ю 2 50 км в посл. час дождь {морось} 9/9 1470 м
[]
+13.8 +10.8 82 +13 +13 1013.0 956.4
02 15.08 Ю 3 60 км 10/10 1500 м
[]
+14.5 +10.2 75 +14 +14 1012.1 955.7
03 15.08 Ю 2 60 км в посл. час дождь {морось} 10/10 1440 м
[]
+14.8 +10.7 76 +15 +15 1011.3 955.0 0.1
04 15.08 ЮЗ 3 28 км слаб. дождь {морось} 9/9 750 м
[]
+14.4 +11.4 82 +13 +13 1010.9 954.5
05 15.08 ЮЗ 5 5000 м слаб. морось с дождем 10/10 480 м
[]
+13.9 +11.8 87 +12 +12 1011.2 954.7
06 15.08 ЮЗ 4 16 км в посл. час дождь {морось} 10/10 200 м
[]
+14.0 +12.5 91 +12 +12 1011.3 954.9 +13.7 +17.9 0.3
07 15.08 ЮЗ 4-7
{9}
35 км в посл. час морось 9/9 240 м
[]
+14.4 +13.0 91 +13 +13 1011.2 954.9
08 15.08 ЮЗ 3 4300 м морось {дождь} 10/10 180 м
[]
+14.3 +13.8 97 +13 +13 1011.3 955.0
09 15.08 ЮЗ 3 30 км слаб. морось {дождь} 10/10 240 м
[]
+15.2 +13.9 92 +14 +14 1011.2 955.0 0.2
10 15.08 ЮЗ 6 30 км в посл. час дождь {морось} 9/9 450 м
[]
+16.0 +12.4 79 +15 +15 1011.1 955.1
11 15.08 З 6 29 км в посл. час морось 9/9 960 м
[]
+17.8 +12.6 72 +17 +18 1010.9 955.2
12 15.08 З 5 50 км в посл. час дождь {морось} 9/9 660 м
[]
+17.7 +12.6 72 +17 +18 1011.3 955.6 0.0
13 15.08 З 3 50 км в посл. час дождь 10/10 700 м
[]
+16.7 +14.8 89 +16 +16 1011.6 955.7
14 15.08 З 7 19 км сильн. дождь {морось} 9/9 210 м
[]
+14.2 +13.2 94 +12 +12 1013.1 956.6
15 15.08 З 5 45 км в посл. час дождь {морось} 9/9 720 м
[]
+15.8 +13.2 85 +15 +15 1013.1 956.9 4
16 15.08 З 6 50 км в посл. час дождь {морось} 10/10 1500 м
[]
+15.7 +12.1 79 +14 +14 1013.3 957.1
17 15.08 З 5 50 км 10/10 1020 м
[]
+16.3 +12.3 77 +15 +15 1013.5 957.4
18 15.08 З 4 50 км {дождь, морось} 8/8 300 м
[]
+15.8 +12.0 78 +15 +15 1014.3 958.0 +14.0 +20.0 0.0
19 15.08 З 3 400 м сильные жидкие осадки 10/10 400 м
[]
+14.0 +12.5 91 +13 +13 1015.9 959.2
20 15.08 ЮЗ 3 30 км в посл. час дождь {морось} 10/10 1500 м
[]
+13.5 +12.1 91 +12 +12 1016.7 959.9
21 15.08 ЮЗ 2 30 км {дождь, морось} 9/9 1500 м
[]
+13.2 +11.6 90 +12 +12 1017.3 960.4 3
22 15.08 З 2 22 км 9/9 1500 м
[]
+12.9 +11.9 94 +12 +12 1017.9 960.9
23 15.08 ЮЗ 2-3
{4}
22 км 10/0 2000 м
[]
+13.1 +12.2 94 +12 +12 1018.1 961.1
00 16.08 ЮЗ 2 21 км {дождь, морось} 10/10 300 м
[]
+13.2 +12.2 94 +12 +12 1018.2 961.2
01 16.08 ЮЗ 2-4
{4}
21 км 8/0 2000 м
[]
+13.1 +12.1 94 +12 +12 1018.3 961.3
02 16.08 Ю 2-3
{4}
14 км ясно +12.3 +11.4 94 +11 +11 1018.1 960.9
03 16.08 ЮЗ 3-4
{4}
10 км ясно +11.6 +11.1 97 +10 +10 1018.7 961.4
04 16.08 З 2-5
{5}
12 км 10/10 210 м
[]
+12.1 +11.2 94 +11 +11 1018.7 961.5
05 16.08 ЮЗ 2-4
{5}
14 км 10/10 210 м
[]
+12.1 +11.0 93 +11 +11 1018.8 961.6
06 16.08 З 2 17 км 10/10 200 м
[]
+12.2 +11.0 92 +11 +11 1019.1 961.9 +11.5 +15.8 3
07 16.08 ЮЗ 2-4
{5}
23 км 9/9 210 м
[]
+12.7 +11.2 91 +12 +12 1019.2 962.1
08 16.08 Ю 3-5
{5}
27 км 10/10 270 м
[]
+13.6 +10.6 82 +12 +12 1019.0 962.0
09 16.08 ЮЗ 3 50 км 10/10 400 м
[]
+14.6 +10.6 77 +14 +14 1018.6 961.8
10 16.08 ЮЗ 4 35 км 9/9 500 м
[]
+15.4 +10.8 74 +14 +15 1018.2 961.6
11 16.08 ЮЗ 4 35 км 9/9 500 м
[]
+15.5 +10.3 71 +15 +15 1018.2 961.6
12 16.08 ЮЗ 4 35 км 9/9 750 м
[]
+17.5 +10.4 63 +17 +18 1017.5 961.3
13 16.08 З 3 50 км 9/9 870 м
[]
+17.7 +11.0 65 +18 +19 1016.9 960.8
14 16.08 ЮЗ 3 45 км 9/9 1000 м
[]
+18.0 +10.0 59 +18 +19 1016.0 960.0
15 16.08 ЮЗ 3 40 км 9/9 1140 м
[]
+19.6 +9.9 53 +21 +22 комфорт 1015.3 959.6
16 16.08 ЮЗ 3 45 км 9/9 1200 м
[]
+19.6 +10.2 55 +21 +21 комфорт 1014.5 958.9
17 16.08 ЮЗ 4 40 км 10/0
[]
+19.4 +10.0 55 +20 +21 1014.1 958.5
18 16.08 ЮЗ 3 60 км 10/0
[]
+17.6 +9.9 61 +18 +18 1014.1 958.1 +12.2 +20.4
19 16.08 Ю 1 60 км 10/0
[]
+16.3 +10.4 68 +17 +17 1014.1 957.9
20 16.08 Ю 1 60 км 10/0
[]
+16.1 +10.6 70 +17 +17 1014.0 957.8
21 16.08 Ю 2 60 км 10/0
[]
+15.7 +10.7 72 +16 +16 1014.0 957.7
22 16.08 ЮВ 2-3
{4}
60 км 10/0
[]
+16.3 +10.6 69 +16 +16 1013.2 957.1
23 16.08 ЮВ 3-5
{5}
65 км 10/0
[]
+17.1 +10.1 63 +17 +17 1012.7 956.7
00 17.08 ЮВ 2 70 км 10/0
[]
+17.0 +10.1 64 +17 +17 1012.0 956.0
01 17.08 Ю 2 60 км в посл. час дождь 10/0 2000 м
[]
+16.5 +10.4 67 +17 +17 1011.4 955.4
02 17.08 Ю 4 60 км в посл. час дождь 10/0
[]
+16.2 +10.6 69 +16 +16 1010.5 954.5
03 17.08 Ю 3 60 км в посл. час дождь 9/0
[]
+16.1 +10.8 71 +16 +16 1010.2 954.2 0.0
04 17.08 ЮЗ 4-7
{8}
55 км в посл. час дождь 10/0 2000 м
[]
+16.2 +10.9 71 +16 +16 1010.1 954.1
05 17.08 ЮЗ 4 55 км 10/0 2000 м
[]
+15.7 +11.1 74 +15 +15 1009.8 953.7
06 17.08 ЮЗ 4 55 км {дождь} 10/0 2000 м
[]
+16.4 +11.2 71 +16 +16 1010.1 954.2 +15.7 +17.6 0.0
07 17.08 ЮЗ 7 50 км 10/10 1500 м
[]
+16.0 +10.7 71 +15 +15 1010.2 954.2
08 17.08 ЮЗ 6 55 км в посл. час морось 10/10 1080 м
[]
+15.5 +10.7 73 +14 +14 1010.5 954.4
09 17.08 ЮЗ 7 50 км в посл. час дождь {морось} 10/0 2000 м
[]
+15.5 +11.5 77 +14 +15 1010.3 954.2 0.0
10 17.08 ЮЗ 8 40 км в посл. час дождь {морось} 10/0
[]
+16.0 +12.0 77 +14 +15 1010.5 954.5
11 17.08 ЮЗ 6 25 км 10/10 500 м
[]
+17.7 +13.3 75 +17 +17 1010.3 954.6
12 17.08 ЮЗ 6 55 км в посл. час осадки {ливн. осадки} 10/10 400 м
[]
+17.0 +13.5 80 +16 +16 1010.4 954.6 0.0
13 17.08 ЮЗ 5 45 км 10/10 420 м
[]
+17.1 +13.6 80 +16 +16 1010.4 954.6
14 17.08 ЮЗ 4 35 км 9/9 270 м
[]
+16.8 +14.4 86 +16 +17 1010.4 954.6
15 17.08 ЮЗ 6 50 км 9/9 270 м
[]
+16.5 +14.4 87 +15 +16 1010.3 954.4
16 17.08 ЮЗ 6-10
{10}
45 км слаб. дождь {морось} 10/10 240 м
[]
+16.4 +14.4 88 +15 +15 1010.2 954.3
17 17.08 ЮЗ 4-7
{9}
35 км слаб. дождь {морось} 10/10 270 м
[]
+16.2 +14.5 90 +15 +15 1010.0 954.1
18 17.08 ЮЗ 4 50 км слаб. дождь {морось} 9/9 200 м
[]
+15.7 +14.6 93 +15 +15 1010.1 954.1 +15.1 +18.1 0.2
19 17.08 Ю 2-4
{6}
40 км слаб. дождь {морось} 10/10 210 м
[]
+15.4 +14.6 95 +15 +15 1010.0 954.0
20 17.08 ЮЗ 2-5
{6}
35 км слаб. дождь {морось} 10/10 210 м
[]
+15.7 +14.7 94 +16 +16 1010.1 954.1
21 17.08 ЮЗ 4 18 км слаб. дождь {морось} 10/10 210 м
[]
+15.6 +14.8 95 +15 +15 1009.7 953.7 0.4
22 17.08 ЮЗ 4 24 км слаб. дождь 10/10 210 м
[]
+15.5 +14.8 96 +14 +14 1009.6 953.6
23 17.08 Ю 3 14 км слаб. дождь 10/10 180 м
[]
+15.5 +15.0 97 +15 +15 1009.5 953.5
00 18.08 Ю 2 16 км слаб. дождь {морось} 9/0
[]
+15.5 +15.0 97 +15 +15 1008.6 952.7 1
01 18.08 Ю 2 29 км слаб. дождь {морось} 10/10 1500 м
[]
+15.5 +15.1 97 +15 +15 1008.1 952.2
02 18.08 ЮЗ 2 4700 м дождь 9/9 150 м
[]
+15.5 +15.2 98 +15 +15 1007.8 951.9
03 18.08 Ю 2 25 км слаб. дождь {морось} 9/9 800 м
[]
+15.5 +15.1 97 +15 +15 1007.6 951.7 2
04 18.08 ЮЗ 3 70 км в посл. час дождь {морось} 10/10 420 м
[]
+15.6 +14.2 91 +15 +15 1007.7 951.8
05 18.08 ЮЗ 2 70 км в посл. час дождь 10/10 800 м
[]
+15.0 +13.5 91 +15 +15 1007.5 951.5
06 18.08 Ю 2 45 км в посл. час дождь {морось} 10/10 300 м
[]
+15.5 +14.7 95 +15 +15 1007.1 951.2 +14.9 +16.0 5
07 18.08 Ю 4 5000 м морось 10/10 240 м
[]
+15.6 +14.7 94 +15 +15 1006.3 950.5
08 18.08 Ю 5 30 км в посл. час морось 9/9 270 м
[]
+17.0 +16.0 94 +16 +17 1005.3 949.8
09 18.08 ЮЗ 6 55 км в посл. час дождь {морось} 9/9 360 м
[]
+18.6 +16.3 86 +19 +19 1004.7 949.6 0.0
10 18.08 ЮЗ 8 30 км 10/10 630 м
[]
+20.5 +16.5 78 +23 +23 комфорт 1004.0 949.3
11 18.08 ЮЗ 8 45 км слаб. дождь {морось} 10/10 540 м
[]
+20.2 +16.6 80 +23 +23 комфорт 1004.8 950.0
12 18.08 ЮЗ 8 23 км в посл. час дождь {морось} 9/9 600 м
[]
+22.2 +16.8 71 +27 +27 душно 1005.3 950.8 0.0
13 18.08 ЮЗ 7 55 км в посл. час дождь {морось} 10/10 720 м
[]
+20.5 +16.2 76 +23 +23 комфорт 1006.3 951.4
14 18.08 ЮЗ 5 40 км в посл. час дождь {морось} 9/0
[]
+20.7 +17.3 81 +24 +27 комфорт 1006.3 951.5
15 18.08 ЮЗ 6 10 км слаб. дождь {морось} 9/0 2000 м
[]
+18.0 +16.4 90 +17 +19 1007.7 952.3 2
16 18.08 ЮЗ 4 70 км в посл. час дождь {морось} 10/10 720 м
[]
+18.2 +16.4 89 +18 +18 1008.4 953.0
17 18.08 З 5 70 км в посл. час дождь {морось} 10/10 600 м
[]
+17.9 +14.7 82 +17 +17 1009.1 953.6
18 18.08 З 4 70 км в посл. час морось {дождь} 10/10 300 м
[]
+16.6 +13.8 84 +16 +16 1009.9 954.1 +15.5 +22.2 0.2
19 18.08 ЮЗ 3 70 км 9/9 1000 м
[]
+15.8 +12.9 83 +15 +15 1010.4 954.4
20 18.08 З 1 70 км 10/0
[]
+14.7 +12.7 88 +15 +15 1011.3 955.0
21 18.08 ЮЗ 2 50 км 9/0
[]
+14.0 +12.7 92 +13 +13 1012.2 955.7
22 18.08 ЮЗ 2 55 км 10/0
[]
+13.8 +12.8 94 +13 +13 1012.5 956.0
23 18.08 ЮЗ 3 60 км 10/10 500 м
[]
+14.2 +12.6 90 +13 +13 1013.6 957.1
00 19.08 ЮЗ 3 55 км 10/0
[]
+13.5 +11.4 87 +12 +12 1014.0 957.3
01 19.08 ЮЗ 3 45 км 10/0
[]
+12.6 +11.5 93 +11 +11 1014.6 957.7
02 19.08 ЮЗ 2 50 км 10/0
[]
+12.3 +11.1 92 +11 +11 1014.6 957.6
03 19.08 Ю 2 45 км 9/9 1500 м
[]
+12.1 +10.6 91 +11 +11 1015.5 958.4
05 19.08 Ю 2-3
{5}
35 км 1/1 1500 м
[]
+11.3 +10.4 94 +10 +10 1016.1 958.8
06 19.08 ЮЗ 2 35 км ясно +12.3 +9.8 85 +11 +13 1016.3 959.2 +11.3 +16.5
07 19.08 ЮЗ 3-5
{5}
30 км ясно +13.6 +10.0 79 +12 +15 1016.5 959.7
08 19.08 ЮЗ 3-6
{6}
30 км ясно +14.9 +9.7 71 +14 +19 1016.6 960.0
09 19.08 ЮЗ 4 35 км ясно +16.2 +9.4 64 +16 +22 1016.7 960.3
10 19.08 ЮЗ 5-8
{8}
21 км ясно +17.3 +8.4 56 +17 +23 1016.8 960.6
11 19.08 З 5-8
{10}
30 км 1/1 1200 м
[]
+17.9 +8.3 53 +18 +24 1016.8 960.7

 

Местоположение метеостанции Нюрбург-Барвайлер (Германия): широта 50.37 долгота 6.87 высота над уровнем моря 488 м.

В архиве по умолчанию представлена погода в Нюрбург-Барвайлере за последнюю неделю. Архивные данные за месяц целиком и за предыдущие месяцы, начиная с января 2011 года, Вы можете получить, выбрав интересующий диапазон дат из раскрывающегося списка и нажав кнопку "Ввод!".


*Определитесь, кто Вы:
робот инопланетянин человек

Внимание! Время в таблицах - всемирное. Для получения местного времени необходимо прибавить поправку, которая равна 1 ч.

Смотрите также архив погоды в соседних городах и на ближайших метеорологических станциях:

Погода на Базе ВВС Buechel (Германия) (26 км)
Погода в Андернахе (Германия) (40 км)
Погода в Бонне (Германия) (46 км)
Погода в Элзенборне (Бельгия) (50 км)
Погода в Кобленце (Германия) (50 км)
Погода в Нёрфенихе (Германия) (53 км)
Погода в Аэропорту Франкфурт-Хан (Германия) (55 км)
Погода на Монт-Риги (Бельгия) (59 км)
Погода в Кёльне (Германия) (60 км)
Погода в Дойзельбахе (Германия) (68 км)

Пояснения к столбцам:

Ветер - указаны скорость ветра в м/с - средняя за 10 мин, порывы в срок и между сроками (в фигурных скобках) и направление, откуда дует ветер: С - северный, СВ - северо-восточный, В - восточный, ЮВ - юго-восточный, Ю - южный, ЮЗ - юго-западный, З - западный, СЗ - северо-западный.
Видимость - горизонтальная дальность видимости в метрах или километрах. При видимости от 1 до 10 км при отсутствии осадков обычно наблюдается дымка, при ухудшении видимости до 1 км и менее - туман. В сухую погоду видимость может ухудшаться дымом, пылью или мглою.
Явления - указаны атмосферные явления, наблюдавшиеся в срок или в последний час перед сроком; фигурными скобками обозначены явления, наблюдавшиеся между сроками (за 1-3 часа до срока); квадратными скобками обозначены град или гололедные отложения с указанием их диаметра в мм.
Облачность - указаны через наклонную черту общая и нижняя облачность в баллах и высота нижней границы облаков в метрах; квадратными скобками обозначены формы облаков: Ci - перистые, Cs - перисто-слоистые, Cc - перисто-кучевые, Ac - высококучевые, As - высокослоистые, Sc - слоисто-кучевые, Ns - слоисто-дождевые, Cu - кучевые, Cb - кучево-дождевые. Подробнее классификацию облаков см. в Атласе облаков (PDF).
T - Температура воздуха - температура, измеренная на высоте 2 м над землей.
Td - Температура точки росы - температура, при понижении до которой содержащийся в воздухе водяной пар достигнет насыщения.
f - Относительная влажность воздуха - влажноcть воздуха, измеренная на высоте 2 м над землей.
Te - Эффективная температура - температура, которую ощущает одетый по сезону человек в тени. Характеристика душности погоды. При расчете учитывается влияние влажности воздуха и скорости ветра на теплоощущения человека.
Tes - Эффективная температура на солнце - температура, которую ощущает человек, с поправкой на солнечный нагрев. Характеристика знойности погоды. Зависит от высоты солнца над горизонтом, облачности и скорости ветра. Ночью, в пасмурную погоду, а также при ветре 12 м/с и более поправка равна нулю.
P - Атмосферное давление - приведенное к уровню моря атмосферное давление.
Po - Атмосферное давление - измеренное на уровне метеостанции атмосферное давление.
Tmin - Минимальная температура - минимум температуры воздуха на высоте 2 м над землей.
Tmax - Максимальная температура - максимум температуры воздуха на высоте 2 м над землей.
R - Количество осадков - Количество выпавших осадков за период времени, мм. При наведении курсора мыши на число - период времени, за который выпало указанное количество осадков.
R24 - Количество осадков - Количество выпавших осадков за 24 часа, мм.
S - Снежный покров - Высота снежного покрова, см. При наведении курсора мыши на число - состояние снежного покрова и степень покрытия местности в баллах.